Dewpoint
72 69 68 70 63 58 52 51 51 51 51 52 52 53 57 61 60 57 62 63 64 65 69 71 76 75 74 76 75 74 74 75 74 74 74 73 73 73 72 73 72 73 73 74 74 74 74 74 73
65 67 70 70 59 51 52 52 50 51 52 53 53 54 59 60 61 62 61 62 64 65 67 69 76 75 75 75 75 75 74 74 73 74 74 74 73 72 73 73 72 72 73 74 74 74 74 74 74
67 68 68 65 53 48 49 50 51 51 52 51 52 54 58 61 62 63 62 61 61 64 68 71 76 75 74 74 75 75 74 73 73 73 74 73 73 72 73 73 70 71 72 74 74 74 74 74 73
70 70 66 53 48 51 51 50 51 51 52 53 53 57 60 63 64 62 63 61 66 67 68 74 76 75 74 75 74 73 72 72 72 72 72 72 73 73 72 73 72 72 74 74 74 74 74 74 73
69 67 52 47 48 50 50 51 51 50 51 53 55 55 58 62 64 64 63 61 61 66 69 72 76 75 75 74 73 73 73 73 72 72 72 71 70 71 72 73 73 73 74 73 73 73 73 72 72
69 59 43 41 49 49 51 52 50 49 51 52 55 56 59 62 63 64 63 61 64 66 67 70 75 75 75 74 73 73 72 71 70 70 70 70 70 70 71 72 73 73 73 73 73 74 73 73 71
61 55 38 42 45 49 50 51 49 52 49 51 53 54 59 59 61 60 62 62 62 63 66 68 68 73 74 73 72 71 71 70 69 70 70 70 70 70 72 71 73 72 73 73 72 72 72 73 71
57 53 39 41 43 47 49 51 51 49 50 52 54 54 57 57 58 58 57 58 57 62 63 66 68 68 69 69 72 71 71 71 70 70 69 71 69 69 72 73 73 73 73 73 73 72 72 71 71
50 48 39 39 42 46 49 48 50 48 48 51 50 54 56 57 55 56 57 57 57 60 61 61 63 64 65 65 69 72 72 72 72 71 72 72 70 73 71 73 73 73 73 73 73 73 73 72 72
44 46 40 42 42 46 48 49 48 46 46 47 48 54 56 56 54 53 54 55 56 58 57 57 59 59 61 59 72 72 70 70 71 73 74 75 74 75 74 73 73 73 73 73 73 73 73 72 69
39 40 41 41 42 44 47 48 47 46 46 46 50 53 55 56 55 53 52 53 55 59 58 57 59 61 61 67 72 71 71 71 72 75 75 75 76 75 76 74 72 73 74 72 72 71 70 70 70
40 40 42 42 42 40 45 47 46 47 47 48 50 52 53 54 54 53 52 53 55 58 59 60 61 70 70 69 67 68 70 71 72 71 75 76 76 75 75 74 75 75 73 74 71 71 73 71 69
40 42 43 42 42 42 42 41 44 43 46 49 50 50 51 51 52 54 54 55 57 59 59 59 64 71 73 74 74 69 72 71 71 73 74 76 75 76 76 75 75 74 74 74 73 74 70 71 71
37 41 43 44 43 43 43 41 44 43 42 47 50 49 49 50 49 52 53 53 59 59 59 59 62 70 69 73 76 75 73 72 73 73 76 76 76 76 76 75 75 73 73 73 74 72 73 72 73
39 39 42 43 43 43 42 43 45 44 42 45 48 49 50 50 51 51 53 56 59 59 60 62 64 67 71 72 73 72 73 72 73 75 75 76 77 77 75 75 74 74 75 74 73 75 74 71 71
37 45 41 41 43 47 46 44 44 45 43 43 47 48 51 52 50 53 53 56 58 58 62 64 61 64 69 72 74 72 74 73 72 74 76 76 77 78 77 76 74 76 76 75 74 73 73 73 73
48 49 48 42 43 46 51 53 45 46 45 43 45 48 50 50 51 53 53 55 57 59 62 63 64 64 69 73 73 74 76 75 76 74 76 77 77 77 76 76 76 76 74 75 73 73 75 73 71
47 46 46 49 46 46 49 49 51 48 47 45 45 47 50 51 51 53 53 53 55 59 62 65 65 70 73 73 75 73 74 74 74 75 75 77 76 77 76 76 76 76 76 75 74 74 73 73 73
47 45 48 51 47 47 49 50 48 49 48 48 46 46 48 50 51 53 55 55 58 62 64 66 68 72 71 71 70 72 72 75 74 76 77 77 77 77 77 77 76 76 75 73 73 75 73 71 74
43 43 44 46 46 41 42 40 46 49 49 50 49 48 48 49 49 56 57 57 59 64 67 69 71 75 73 71 72 71 72 74 75 75 77 77 77 77 75 76 74 76 74 76 76 75 74 72 74
33 31 37 42 39 37 40 43 49 50 50 50 50 50 48 48 48 53 56 57 58 63 66 69 73 74 74 75 73 74 73 73 73 71 72 76 77 76 77 76 77 77 72 70 75 75 74 73 74
28 31 34 32 31 34 41 38 48 50 50 50 50 50 49 48 48 51 54 55 57 61 65 70 71 75 74 76 74 76 73 71 71 72 74 76 77 76 76 77 77 77 70 65 66 73 74 74 72
28 33 34 31 29 38 40 38 53 53 52 50 49 49 49 48 48 49 53 56 57 61 62 68 71 75 75 75 78 74 74 73 70 73 73 76 76 77 76 78 78 76 73 71 67 72 75 75 73
24 28 30 30 29 28 27 38 47 51 53 51 48 49 49 48 47 48 52 55 56 60 62 65 71 74 76 76 76 77 74 73 75 73 72 74 77 77 78 78 79 77 76 74 74 75 76 75 75
21 22 24 25 24 25 23 38 42 50 50 49 47 47 49 49 47 48 52 53 56 58 60 64 71 73 75 75 75 77 77 77 75 71 74 72 71 72 76 79 79 77 77 76 77 77 77 77 75
17 18 21 28 21 20 28 40 41 47 48 45 44 46 47 50 49 48 52 53 56 58 60 64 71 73 74 75 76 77 77 74 73 77 71 70 66 71 70 76 78 76 77 78 77 76 75 76 76
13 19 19 19 20 29 31 40 41 41 35 35 32 44 45 50 50 48 50 49 54 57 61 67 71 73 74 73 76 77 77 76 74 77 73 71 69 69 68 69 74 77 77 78 78 77 77 76 76
7 12 13 17 25 27 26 33 37 44 39 35 33 35 42 48 50 49 49 50 51 52 57 68 72 73 73 72 74 75 76 77 77 78 71 67 67 68 66 66 68 76 77 78 78 76 76 76 76
3 4 7 6 12 20 27 31 30 43 44 22 26 28 41 45 49 49 50 51 51 54 56 61 69 71 72 71 73 74 74 75 76 75 76 68 68 65 65 65 70 76 77 78 78 77 76 76 78
2 3 1 10 18 17 19 21 23 26 21 16 16 27 36 44 49 51 50 51 51 55 59 62 67 69 71 70 73 73 74 75 73 73 75 73 66 66 65 71 75 76 78 78 77 76 76 76 76
Lifted_Index
-1 -2 -3 -4 -3 -2 -1 -0 1 1 1 1 0 -0 -1 -1 -1 -1 -1 -1 -1 -1 -1 -1 -2 -2 -2 -2 -2 -2 -2 -2 -2 -3 -2 -2 -2 -2 -2 -2 -2 -2 -3 -4 -4 -5 -5 -5 -5
-2 -3 -3 -3 -3 -2 -1 -0 0 1 1 1 0 -1 -1 -1 -2 -2 -1 -1 -1 -1 -1 -1 -2 -2 -2 -2 -2 -2 -2 -2 -2 -2 -2 -2 -2 -2 -2 -2 -2 -2 -2 -3 -4 -4 -5 -5 -5
-4 -4 -4 -3 -2 -1 -1 -1 -0 0 0 0 -0 -1 -2 -2 -2 -2 -2 -1 -1 -1 -1 -2 -3 -3 -3 -2 -3 -2 -2 -2 -2 -2 -2 -2 -2 -2 -2 -2 -1 -1 -2 -3 -4 -4 -4 -5 -4
-5 -5 -4 -3 -2 -1 -1 -1 -0 0 0 0 -1 -1 -2 -2 -2 -2 -2 -2 -2 -2 -2 -3 -3 -3 -3 -3 -3 -2 -2 -2 -2 -2 -2 -2 -2 -2 -2 -2 -1 -1 -2 -3 -3 -4 -4 -4 -4
-5 -4 -3 -2 -1 -1 -1 -1 -0 0 0 -0 -1 -2 -2 -2 -2 -2 -2 -2 -2 -2 -2 -3 -4 -3 -3 -3 -3 -3 -2 -2 -1 -2 -2 -1 -1 -1 -1 -2 -2 -2 -2 -3 -3 -3 -3 -3 -3
-5 -4 -2 -1 -1 -1 -1 -1 -1 -0 0 -0 -1 -1 -1 -2 -2 -2 -2 -3 -3 -3 -2 -3 -3 -3 -3 -3 -3 -3 -2 -2 -1 -1 -2 -1 -1 -1 -1 -2 -2 -2 -2 -2 -3 -3 -3 -3 -3
-5 -4 -1 -0 -0 -1 -1 -1 -1 -1 -0 -0 -1 -1 -1 -1 -2 -2 -2 -2 -3 -2 -2 -2 -2 -3 -3 -3 -3 -2 -2 -1 -1 -1 -2 -1 -1 -1 -2 -2 -2 -2 -2 -2 -2 -3 -3 -3 -3
-3 -3 -1 -0 -0 -1 -1 -1 -0 -0 -1 -1 -1 -0 -1 -1 -1 -2 -2 -2 -2 -2 -2 -2 -1 -2 -2 -2 -2 -2 -2 -1 -1 -2 -2 -1 -1 -1 -2 -2 -2 -2 -2 -2 -2 -2 -2 -2 -2
-2 -1 -1 0 0 -0 -1 -1 -0 -0 -1 -1 -1 -1 -1 -1 -1 -1 -1 -1 -1 -2 -1 -1 -1 -1 -1 -1 -1 -2 -2 -2 -2 -2 -2 -1 -1 -2 -2 -2 -2 -2 -3 -2 -2 -2 -2 -2 -2
-1 -0 0 1 1 0 -0 -1 -0 0 -0 -1 -1 -1 -1 -1 -1 -0 -0 -1 -1 -1 -1 -1 -0 -0 -0 -1 -2 -2 -2 -2 -2 -3 -3 -2 -2 -2 -3 -3 -3 -3 -3 -3 -3 -3 -2 -2 -2
0 0 1 1 1 1 0 -0 0 0 0 -0 -1 -1 -1 -1 -0 0 0 0 -0 -1 -1 -0 -0 -1 -1 -2 -2 -2 -2 -3 -3 -3 -3 -3 -3 -3 -3 -3 -3 -3 -3 -3 -3 -3 -2 -2 -2
-0 1 1 1 2 2 1 1 0 0 0 -0 -0 -1 -1 -1 -1 -0 0 -0 -0 -1 -1 -1 -1 -1 -2 -3 -3 -2 -2 -3 -3 -4 -4 -4 -4 -4 -3 -3 -3 -3 -3 -3 -3 -2 -2 -2 -1
-1 0 1 1 1 1 1 1 1 1 0 0 -0 -0 -0 -0 -0 -0 -0 -0 -1 -1 -1 -1 -1 -2 -3 -3 -3 -3 -3 -3 -3 -4 -4 -5 -5 -4 -4 -3 -3 -3 -3 -3 -3 -2 -2 -2 -2
-1 -0 0 0 1 1 1 1 1 1 1 0 0 0 0 0 0 0 -0 -0 -1 -1 -1 -1 -2 -3 -3 -3 -4 -4 -3 -3 -3 -4 -5 -5 -5 -5 -4 -4 -3 -3 -3 -3 -3 -3 -2 -2 -2
-1 -1 -0 -0 -0 -0 -0 0 0 1 1 1 1 1 0 0 0 0 0 -0 -1 -1 -1 -2 -2 -3 -4 -4 -4 -4 -4 -4 -4 -4 -5 -5 -5 -5 -5 -4 -4 -3 -3 -3 -3 -3 -3 -2 -2
-1 -1 -1 -1 -1 -1 -1 -1 -1 0 1 1 1 1 0 0 0 -0 -0 -0 -0 -0 -1 -1 -2 -3 -4 -4 -5 -5 -5 -4 -4 -5 -5 -6 -6 -6 -5 -5 -4 -4 -3 -3 -3 -3 -3 -3 -2
-1 -1 -1 -1 -1 -2 -2 -1 -1 -1 0 1 1 1 0 0 0 -0 -0 -0 -0 -0 -1 -1 -2 -3 -4 -5 -5 -5 -5 -5 -5 -5 -6 -6 -6 -6 -6 -5 -5 -4 -3 -3 -3 -3 -3 -3 -3
-0 -0 -1 -1 -1 -2 -2 -2 -2 -2 -1 0 1 1 0 0 0 0 0 -0 -0 -1 -1 -1 -2 -3 -4 -5 -5 -5 -5 -5 -5 -5 -6 -6 -6 -6 -6 -5 -5 -4 -3 -3 -3 -3 -3 -3 -3
0 -0 -1 -1 -1 -2 -2 -3 -3 -2 -2 -1 -0 0 0 0 0 0 -0 -0 -1 -1 -2 -2 -3 -4 -4 -4 -4 -4 -5 -5 -5 -5 -5 -6 -6 -6 -6 -6 -5 -4 -4 -3 -3 -4 -3 -3 -3
0 -0 -1 -1 -1 -1 -1 -2 -2 -3 -2 -2 -1 -1 0 0 0 -0 -1 -1 -1 -2 -3 -3 -4 -4 -4 -4 -4 -5 -5 -5 -4 -4 -5 -6 -6 -6 -6 -5 -5 -4 -3 -3 -4 -4 -4 -4 -4
-0 -1 -1 -1 -1 -1 -1 -1 -2 -2 -3 -3 -2 -1 -1 0 0 -0 -1 -1 -1 -2 -3 -4 -5 -5 -5 -5 -5 -5 -5 -5 -4 -4 -5 -6 -7 -6 -6 -5 -5 -4 -3 -2 -3 -4 -4 -4 -4
-1 -1 -0 -0 -0 -1 -0 -1 -1 -2 -2 -3 -3 -2 -1 -0 0 0 -0 -1 -1 -2 -3 -4 -5 -6 -6 -6 -5 -5 -5 -5 -4 -4 -5 -6 -7 -7 -6 -6 -5 -4 -3 -1 -2 -3 -4 -4 -4
-0 -0 -0 -0 -1 -1 -0 -0 -0 -1 -1 -2 -3 -2 -2 -1 0 0 0 -0 -1 -2 -3 -4 -5 -6 -6 -6 -6 -6 -5 -5 -5 -5 -5 -6 -7 -7 -7 -6 -6 -5 -3 -2 -2 -3 -4 -4 -4
-1 -0 -0 -0 -1 -1 -0 -0 -0 -0 -0 -1 -2 -2 -2 -1 0 0 0 -0 -1 -2 -3 -4 -5 -6 -7 -7 -7 -6 -6 -6 -6 -5 -5 -5 -6 -7 -7 -7 -6 -6 -5 -4 -4 -5 -5 -5 -5
-1 -1 -1 -1 -1 -1 -1 -0 -0 0 1 -0 -1 -2 -2 -1 -0 -0 -0 -1 -1 -1 -2 -3 -5 -6 -7 -7 -8 -7 -7 -6 -6 -6 -6 -5 -5 -5 -6 -7 -7 -7 -6 -6 -6 -6 -6 -6 -6
-0 -1 -1 -1 -1 -1 -0 -0 0 0 1 0 -1 -2 -2 -2 -1 -1 -0 -1 -1 -1 -2 -3 -5 -7 -7 -8 -8 -8 -7 -7 -6 -6 -5 -4 -3 -3 -4 -6 -7 -7 -7 -7 -7 -7 -7 -7 -6
0 -0 -1 -1 -1 -1 -0 0 0 1 1 1 -1 -2 -2 -2 -2 -1 -1 -1 -1 -1 -2 -4 -6 -7 -7 -8 -8 -8 -8 -7 -7 -6 -5 -3 -2 -1 -2 -4 -6 -7 -7 -8 -8 -7 -7 -7 -7
0 -0 -1 -1 -1 -1 -0 -0 -0 0 0 0 -0 -1 -1 -2 -2 -2 -1 -1 -1 -1 -2 -5 -6 -7 -8 -8 -8 -9 -9 -8 -8 -7 -6 -4 -3 -1 -1 -3 -5 -7 -7 -8 -8 -7 -7 -7 -7
-0 -0 -0 -1 -1 -1 -1 -0 -0 -0 -0 -1 -1 -1 -1 -1 -2 -2 -1 -1 -1 -1 -2 -4 -6 -7 -8 -8 -8 -9 -9 -9 -8 -7 -6 -5 -3 -2 -2 -4 -6 -7 -7 -8 -8 -8 -7 -7 -7
-1 -0 -1 -1 -1 -1 -1 -0 0 -0 -1 -1 -1 -1 -1 -1 -2 -2 -2 -1 -1 -1 -2 -4 -5 -7 -7 -7 -7 -8 -9 -9 -8 -7 -7 -6 -5 -4 -4 -5 -6 -7 -7 -8 -8 -8 -7 -7 -7